TimeEST,TemperatureF,Dew PointF,Humidity,Sea Level PressureIn,VisibilityMPH,Wind Direction,Wind SpeedMPH,Gust SpeedMPH,PrecipitationIn,Events,Conditions,WindDirDegrees,DateUTC
12:40 AM,8.6,3.2,79,30.10,8.0,Calm,Calm,-,N/A,,Scattered Clouds,0,2013-01-26 05:40:00
12:54 AM,8.1,3.9,83,30.10,7.0,Calm,Calm,-,N/A,,Clear,0,2013-01-26 05:54:00
1:54 AM,7.0,3.0,84,30.10,8.0,WNW,3.5,-,N/A,,Clear,300,2013-01-26 06:54:00
2:54 AM,7.0,3.0,84,30.09,6.0,Calm,Calm,-,N/A,,Clear,0,2013-01-26 07:54:00
3:54 AM,6.1,1.9,83,30.09,8.0,Calm,Calm,-,N/A,,Mostly Cloudy,0,2013-01-26 08:54:00
4:54 AM,14.0,10.9,88,30.11,8.0,Calm,Calm,-,N/A,,Overcast,0,2013-01-26 09:54:00
5:54 AM,16.0,12.9,88,30.13,8.0,Calm,Calm,-,N/A,,Overcast,0,2013-01-26 10:54:00
6:54 AM,18.0,12.9,81,30.14,10.0,Variable,4.6,-,N/A,,Overcast,0,2013-01-26 11:54:00
7:54 AM,17.1,12.0,81,30.18,8.0,West,3.5,-,N/A,,Scattered Clouds,280,2013-01-26 12:54:00
8:54 AM,19.0,12.0,74,30.20,8.0,WNW,3.5,-,N/A,,Clear,290,2013-01-26 13:54:00
9:54 AM,19.9,10.9,68,30.21,10.0,NW,6.9,-,N/A,,Overcast,310,2013-01-26 14:54:00
10:54 AM,21.9,10.9,63,30.22,10.0,WNW,5.8,-,N/A,,Overcast,290,2013-01-26 15:54:00
11:54 AM,23.0,10.9,60,30.22,10.0,NNW,6.9,-,N/A,,Mostly Cloudy,330,2013-01-26 16:54:00
12:54 PM,24.1,8.1,51,30.18,10.0,Variable,6.9,-,0.01,,Clear,0,2013-01-26 17:54:00
1:54 PM,26.1,9.0,49,30.18,10.0,NW,11.5,17.3,0.01,,Clear,310,2013-01-26 18:54:00
2:54 PM,27.0,8.1,45,30.20,10.0,NW,9.2,20.7,N/A,,Clear,310,2013-01-26 19:54:00
3:54 PM,27.0,8.1,45,30.22,10.0,WNW,10.4,18.4,N/A,,Clear,300,2013-01-26 20:54:00
4:54 PM,26.1,7.0,44,30.23,10.0,NW,11.5,-,N/A,,Clear,320,2013-01-26 21:54:00
5:54 PM,25.0,9.0,51,30.27,10.0,WNW,6.9,-,N/A,,Clear,300,2013-01-26 22:54:00
6:54 PM,24.1,8.1,51,30.30,10.0,NW,4.6,-,N/A,,Clear,310,2013-01-26 23:54:00
7:54 PM,24.1,8.1,51,30.32,10.0,NW,6.9,-,N/A,,Clear,320,2013-01-27 00:54:00
8:54 PM,23.0,8.1,53,30.35,10.0,NW,5.8,-,N/A,,Clear,310,2013-01-27 01:54:00
9:54 PM,21.9,7.0,53,30.38,10.0,NW,3.5,-,N/A,,Clear,310,2013-01-27 02:54:00
10:54 PM,21.0,7.0,55,30.40,10.0,NW,4.6,-,N/A,,Clear,320,2013-01-27 03:54:00
11:54 PM,21.0,6.1,53,30.42,10.0,Calm,Calm,-,N/A,,Clear,0,2013-01-27 04:54:00